Location: Burjasot
(39.5167°N, 0.4167°W)
Time: 01:19:11
(UTC+02:00)

ISS - Visible Passes

Search period start: 23 May 2017 00:00
Search period end: 02 June 2017 00:00
Orbit: 402 x 409 km, 51.6° (Epoch: 23 May)

Date Brightness Start Highest point End Pass type
(mag) Time Alt. Az. Time Alt. Az. Time Alt. Az.
23 May -0.7 01:15:13 15° N 01:15:13 15° N 01:16:26 10° NNE visible
23 May -0.2 02:51:23 10° N 02:51:41 10° N 02:51:59 10° N visible
23 May -0.7 04:27:02 10° NNW 04:29:16 17° NNE 04:31:30 10° ENE visible
23 May -3.8 06:02:53 10° NW 06:06:10 87° NE 06:09:25 10° SE visible
23 May -3.5 22:42:09 10° SSW 22:45:17 43° SE 22:48:26 10° ENE visible
24 May -1.4 00:19:07 10° W 00:21:53 24° NNW 00:24:40 10° NNE visible
24 May -0.2 01:58:29 10° NNW 01:59:18 11° N 02:00:07 10° N visible
24 May -0.4 03:35:19 10° NNW 03:36:58 13° NNE 03:38:37 10° NE visible
24 May -2.6 05:10:56 10° NW 05:14:06 45° NNE 05:17:16 10° ESE visible
24 May -2.6 21:50:47 10° S 21:53:23 22° SE 21:56:00 10° E visible
24 May -2.3 23:26:36 10° WSW 23:29:43 39° NNW 23:32:50 10° NE visible
25 May -0.3 01:05:26 10° NW 01:06:55 12° NNW 01:08:25 10° NNE visible
25 May -0.2 02:43:35 10° N 02:44:36 11° N 02:45:36 10° NNE visible
25 May -1.6 04:19:04 10° NNW 04:21:57 27° NNE 04:24:49 10° E visible
25 May -3.2 05:55:28 10° WNW 05:58:29 35° SW 06:01:28 10° SSE visible
25 May -3.6 22:34:20 10° WSW 22:37:37 72° NW 22:40:55 10° NE visible
26 May -0.6 00:12:29 10° WNW 00:14:35 16° NNW 00:16:41 10° NNE visible
26 May -0.1 01:51:47 10° N 01:52:11 10° N 01:52:35 10° N visible
26 May -0.9 03:27:16 10° NNW 03:29:43 19° NNE 03:32:09 10° ENE visible
26 May -4.0 05:03:14 10° NW 05:06:30 72° SW 05:09:45 10° SE visible
26 May -1.1 23:19:40 10° WNW 23:22:16 21° NNW 23:24:54 10° NNE visible
27 May -0.2 00:59:09 10° NNW 00:59:45 10° N 01:00:21 10° N visible
27 May -0.5 02:35:30 10° NNW 02:37:23 14° NNE 02:39:17 10° NE visible
27 May -3.3 04:11:11 10° NW 04:14:26 57° NE 04:17:40 10° ESE visible
27 May -2.1 05:48:47 10° W 05:50:35 14° SW 05:52:23 10° SSW visible
27 May -1.8 22:27:02 10° W 22:30:02 32° NNW 22:33:03 10° NE visible
28 May -0.4 00:06:05 10° NNW 00:07:19 12° N 00:08:34 10° NNE visible
28 May -0.4 01:43:44 10° NNW 01:45:00 12° N 01:46:16 10° NNE visible
28 May -1.0 03:19:16 10° NW 03:19:52 14° NNW 03:19:52 14° NNW visible
28 May -0.6 23:13:02 10° NW 23:14:55 14° NNW 23:16:49 10° NNE visible
29 May -0.3 00:51:56 10° N 00:52:34 10° N 00:53:11 10° NNE visible
29 May -0.8 02:27:24 10° NNW 02:28:29 16° NNW 02:28:29 16° NNW visible
29 May -0.8 22:20:08 10° WNW 22:22:33 19° NNW 22:25:00 10° NNE visible
29 May -0.3 23:59:40 10° N 00:00:05 10° N 00:00:31 10° N visible
30 May -0.8 01:35:34 10° NNW 01:37:35 16° NNE 01:37:35 16° NNE visible
30 May -0.5 23:06:36 10° NNW 23:07:37 11° N 23:08:37 10° N visible
31 May -0.7 00:43:46 10° NNW 00:45:17 12° NNE 00:46:47 10° NE visible
31 May -0.6 02:19:21 10° NW 02:19:28 11° NW 02:19:28 11° NW visible
31 May -0.7 22:13:30 10° NW 22:15:10 13° NNW 22:16:48 10° NNE visible
31 May -0.5 23:51:57 10° N 23:52:49 11° N 23:53:40 10° NNE visible
01 Jun -1.0 01:27:25 10° NNW 01:28:50 19° NNW 01:28:50 19° NNW visible
01 Jun -0.4 22:59:55 10° N 23:00:19 10° N 23:00:42 10° N visible
